Location: El Bakhil
(32.7726°N, 5.5387°W)
Time: 04:31:38
(UTC+00:00)

Okean 1 - Pass Details

Date: 03 March 2021
Orbit: 539 x 554 km, 82.5° (Epoch: 12 April)

Event Time Altitude Azimuth Distance (km) Brightness Sun altitude
Rises 19:32:57 0° 348° (NNW) 2,726 7.1 -15.9°
Reaches altitude 10° 19:35:08 10° 344° (NNW) 1,831 6.2 -16.4°
Maximum altitude 19:39:05 56° 267° (W) 660 4.0 -17.2°
Drops below altitude 10° 19:43:01 10° 188° (S) 1,825 6.0 -18.0°
Sets 19:45:12 0° 184° (S) 2,715 6.9 -18.5°
